User: anonymous   Login
Location: Harburg
(48.7667°N, 10.6667°E)
Time: 02:53:04
(UTC+00:00)
Language:

MOS 1 Rocket - Orbit

View from above orbital plane
View from above orbital plane
View from above satellite
View from above satellite

Ground track
Ground track

The orbit data is extracted from the following two-line orbital elements,

1 17528U 87018B   20332.62436353 +.00000110 +00000-0 +33679-4 0  9993
2 17528 097.4008 162.5738 0150679 311.4694 047.3645 14.51011715761886
Epoch (UTC): 27 November 2020 14:59:05
Eccentricity: 0.0150679
inclination: 97.4008°
perigee height: 615 km
apogee height: 829 km
right ascension of ascending node: 162.5738°
argument of perigee: 311.4694°
revolutions per day: 14.51011715
mean anomaly at epoch: 47.3645°
orbit number at epoch: 76188

The dashed part of the orbit path shows where the satellite is in the earth's shadow,  

DLR